Beatrice, NE

4:38 PM CST on November 19, 2017 (GMT -0600)
Beatrice Municipal

Weather History for KBIE - January, 2005

Change the Weather History Date:

Wednesday, January 5, 2005

  Actual Average Record
Temperature  
Mean Temperature 10 °F -  
Max Temperature 14 °F 29 °F 68 °F (2012)
Min Temperature 5 °F 11 °F -10 °F (1971)
Degree Days  
Heating Degree Days 56    
Moisture  
Dew Point 6 °F    
Average Humidity 83    
Maximum Humidity 92    
Minimum Humidity 79    
Precipitation  
Precipitation 0.00 in - - ()
Sea Level Pressure  
Sea Level Pressure 30.22 in    
Wind  
Wind Speed 14 mph (North)    
Max Wind Speed 20 mph    
Max Gust Speed 25 mph    
Visibility 3 miles    
Events Snow    
Averages and records for this station are not official NWS values.
T = Trace of Precipitation, MM = Missing Value Source: NWS Daily Summary

Daily Weather History Graph

Daily Weather History Graph

Search for Another Location

Airport or City:

Trip Planner

Search our weather history database for the weather conditions in past years. The results will help you decide how hot, cold, wet, or windy it might be!

Date:

Astronomy

Jan. 05, 2005 Rise Set
Actual Time 7:50 AM CST 5:15 PM CST
Civil Twilight 7:19 AM CST 5:45 PM CST
Nautical Twilight 6:45 AM CST 6:19 PM CST
Astronomical Twilight 6:12 AM CST 6:52 PM CST
Moon 2:24 AM CST (1/5) 12:59 PM CST (1/5)
Length of Visible Light 10h 26m
Length of Day
9h 25m
Waning Crescent, 29% of the Moon is Illuminated
Jan 5
Waning Crescent
Jan 10
New
Jan 17
First Quarter
Jan 25
Full
Feb 2
Last Quarter

Hourly Weather History & Observations

Time (CST) Temp. Windchill Dew Point Humidity Pressure Visibility Wind Dir Wind Speed Gust Speed Precip Events Conditions
12:10 AM 14.0 °F -0.8 °F 10.4 °F 86% 30.27 in 1.5 mi North 13.8 mph 21.9 mph N/A Snow Light Snow
12:11 AM 12.2 °F -3.1 °F 8.6 °F 85% 30.27 in 1.8 mi North 13.8 mph 21.9 mph N/A Snow Light Snow
12:30 AM 14.0 °F -0.2 °F 10.4 °F 86% 30.26 in 4.0 mi North 12.7 mph 18.4 mph N/A Snow Light Snow
12:50 AM 12.2 °F -1.8 °F 8.6 °F 85% 30.24 in 2.0 mi North 11.5 mph - N/A Snow Light Snow
1:10 AM 12.2 °F -2.5 °F 10.4 °F 92% 30.24 in 1.8 mi NNE 12.7 mph 19.6 mph N/A Snow Light Snow
1:30 AM 12.2 °F -2.5 °F 8.6 °F 85% 30.23 in 3.0 mi North 12.7 mph 20.7 mph N/A Snow Light Snow
1:50 AM 12.2 °F -4.3 °F 8.6 °F 85% 30.25 in 3.0 mi North 16.1 mph 20.7 mph N/A Snow Light Snow
2:10 AM 12.2 °F -3.7 °F 8.6 °F 85% 30.23 in 5.0 mi NNE 15.0 mph 25.3 mph N/A   Overcast
2:30 AM 12.2 °F -3.7 °F 8.6 °F 85% 30.20 in 4.0 mi NNE 15.0 mph 21.9 mph N/A   Overcast
2:50 AM 12.2 °F -3.1 °F 8.6 °F 85% 30.21 in 4.0 mi NNE 13.8 mph 23.0 mph N/A   Overcast
3:10 AM 12.2 °F -3.1 °F 8.6 °F 85% 30.23 in 7.0 mi North 13.8 mph 19.6 mph N/A   Overcast
3:30 AM 12.2 °F -3.7 °F 8.6 °F 85% 30.25 in 10.0 mi North 15.0 mph - N/A   Overcast
3:50 AM 12.2 °F -4.3 °F 8.6 °F 85% 30.21 in 3.0 mi North 16.1 mph 19.6 mph N/A Snow Light Snow
4:10 AM 12.2 °F -3.1 °F 8.6 °F 85% 30.24 in 2.5 mi North 13.8 mph - N/A Snow Light Snow
4:30 AM 12.2 °F -3.1 °F 8.6 °F 85% 30.23 in 2.5 mi North 13.8 mph - N/A Snow Light Snow
4:50 AM 10.4 °F -7.7 °F 8.6 °F 92% 30.25 in 2.5 mi North 18.4 mph - N/A Snow Light Snow
5:10 AM 10.4 °F -8.2 °F 6.8 °F 85% 30.24 in 4.0 mi North 19.6 mph - N/A Snow Light Snow
5:30 AM 10.4 °F -6.0 °F 6.8 °F 85% 30.25 in 2.5 mi North 15.0 mph 25.3 mph N/A Snow Light Snow
5:50 AM 10.4 °F -6.6 °F 5.0 °F 79% 30.24 in 4.0 mi North 16.1 mph 21.9 mph N/A   Overcast
6:10 AM 10.4 °F -6.6 °F 5.0 °F 79% 30.24 in 3.0 mi North 16.1 mph 21.9 mph N/A Snow Light Snow
6:30 AM 10.4 °F -5.4 °F 5.0 °F 79% 30.25 in 3.0 mi North 13.8 mph 20.7 mph N/A Snow Light Snow
6:50 AM 10.4 °F -6.6 °F 5.0 °F 79% 30.24 in 2.5 mi North 16.1 mph 23.0 mph N/A Snow Light Snow
7:10 AM 10.4 °F -6.0 °F 5.0 °F 79% 30.25 in 4.0 mi North 15.0 mph 23.0 mph N/A Snow Light Snow
7:30 AM 8.6 °F -7.0 °F 5.0 °F 85% 30.25 in 5.0 mi North 12.7 mph - N/A   Overcast
7:50 AM 8.6 °F -7.0 °F 5.0 °F 85% 30.24 in 7.0 mi North 12.7 mph 24.2 mph N/A   Overcast
8:10 AM 8.6 °F -7.0 °F 5.0 °F 85% 30.27 in 5.0 mi North 12.7 mph 18.4 mph N/A   Overcast
8:31 AM 8.6 °F -8.9 °F 5.0 °F 85% 30.24 in 5.0 mi North 16.1 mph 19.6 mph N/A   Overcast
8:50 AM 8.6 °F -7.0 °F 5.0 °F 85% 30.26 in 3.0 mi North 12.7 mph - N/A   Overcast
9:32 AM 8.6 °F -4.7 °F 3.2 °F 79% 30.29 in 2.5 mi North 9.2 mph - N/A Snow Light Snow
9:50 AM 8.6 °F -7.0 °F 5.0 °F 85% 30.27 in 2.0 mi North 12.7 mph 17.3 mph N/A Snow Light Snow
9:53 AM 8.6 °F -8.9 °F 3.2 °F 79% 30.27 in 2.0 mi North 16.1 mph - N/A Snow Light Snow
10:10 AM 10.4 °F -5.4 °F 5.0 °F 79% 30.25 in 1.5 mi North 13.8 mph 19.6 mph N/A Snow Light Snow
10:30 AM 10.4 °F -6.0 °F 5.0 °F 79% 30.24 in 1.5 mi NNE 15.0 mph 23.0 mph N/A Snow Light Snow
10:50 AM 10.4 °F -6.0 °F 5.0 °F 79% 30.23 in 1.8 mi North 15.0 mph 23.0 mph N/A Snow Light Snow
11:10 AM 10.4 °F -5.4 °F 5.0 °F 79% 30.23 in 2.5 mi North 13.8 mph 18.4 mph N/A Snow Light Snow
11:30 AM 10.4 °F -5.4 °F 5.0 °F 79% 30.24 in 4.0 mi North 13.8 mph - N/A Snow Light Snow
12:10 PM 8.6 °F -7.7 °F 5.0 °F 85% 30.20 in 2.5 mi North 13.8 mph 19.6 mph N/A Snow Light Snow
12:30 PM 10.4 °F -6.0 °F 5.0 °F 79% 30.20 in 3.0 mi North 15.0 mph - N/A Snow Light Snow
12:50 PM 10.4 °F -5.4 °F 5.0 °F 79% 30.17 in 3.0 mi North 13.8 mph 18.4 mph N/A Snow Light Snow
1:10 PM 10.4 °F -4.8 °F 5.0 °F 79% 30.18 in 4.0 mi North 12.7 mph 18.4 mph N/A Snow Light Snow
1:30 PM 10.4 °F -4.1 °F 5.0 °F 79% 30.18 in 4.0 mi North 11.5 mph - N/A   Haze
1:50 PM 8.6 °F -7.7 °F 3.2 °F 79% 30.16 in 7.0 mi North 13.8 mph - N/A   Overcast
2:10 PM 8.6 °F -6.3 °F 5.0 °F 85% 30.16 in 3.0 mi North 11.5 mph - N/A   Overcast
2:30 PM 8.6 °F -6.3 °F 5.0 °F 85% 30.16 in 3.0 mi North 11.5 mph - N/A   Overcast
2:50 PM 8.6 °F -8.3 °F 5.0 °F 85% 30.16 in 1.2 mi North 15.0 mph - N/A Snow Light Snow
3:10 PM 8.6 °F -7.7 °F 3.2 °F 79% 30.16 in 1.2 mi North 13.8 mph - N/A Snow Light Snow
3:30 PM 8.6 °F -8.3 °F 3.2 °F 79% 30.17 in 1.0 mi NNW 15.0 mph - N/A Snow Light Snow
3:50 PM 8.6 °F -8.3 °F 3.2 °F 79% 30.16 in 1.0 mi North 15.0 mph - N/A Snow Light Snow
4:10 PM 8.6 °F -8.3 °F 3.2 °F 79% 30.17 in 0.8 mi NNW 15.0 mph - N/A Snow Light Snow
4:30 PM 8.6 °F -7.7 °F 3.2 °F 79% 30.17 in 0.5 mi NNW 13.8 mph - N/A Snow Snow
4:50 PM 6.8 °F -10.0 °F 3.2 °F 85% 30.16 in 0.5 mi North 13.8 mph - N/A Snow Light Snow
5:10 PM 6.8 °F -10.0 °F 3.2 °F 85% 30.16 in 0.5 mi North 13.8 mph - N/A Snow Snow
5:30 PM 6.8 °F -8.6 °F 3.2 °F 85% 30.16 in 1.0 mi North 11.5 mph - N/A Snow Snow
5:50 PM 5.0 °F -11.6 °F 1.4 °F 85% 30.15 in 1.2 mi North 12.7 mph - N/A Snow Light Snow
6:10 PM 5.0 °F -13.0 °F 1.4 °F 85% 30.15 in 1.0 mi North 15.0 mph - N/A Snow Snow
6:30 PM 5.0 °F -13.6 °F 1.4 °F 85% 30.15 in 1.8 mi North 16.1 mph - N/A Snow Light Snow
6:50 PM 5.0 °F -12.3 °F 1.4 °F 85% 30.15 in 1.2 mi North 13.8 mph - N/A Snow Snow
7:10 PM 5.0 °F -11.6 °F 1.4 °F 85% 30.15 in 1.5 mi North 12.7 mph - N/A Snow Light Snow
7:30 PM 5.0 °F -10.8 °F 1.4 °F 85% 30.15 in 1.2 mi North 11.5 mph - N/A Snow Light Snow
7:50 PM 5.0 °F -12.3 °F 1.4 °F 85% 30.15 in 1.2 mi North 13.8 mph - N/A Snow Light Snow
8:10 PM 5.0 °F -12.3 °F 1.4 °F 85% 30.15 in 2.0 mi NNW 13.8 mph - N/A Snow Light Snow
8:30 PM 5.0 °F -13.0 °F 1.4 °F 85% 30.15 in 1.5 mi North 15.0 mph - N/A Snow Light Snow
8:50 PM 5.0 °F -11.6 °F 1.4 °F 85% 30.15 in 1.8 mi North 12.7 mph - N/A Snow Light Snow
9:10 PM 5.0 °F -10.8 °F 1.4 °F 85% 30.15 in 2.5 mi NNW 11.5 mph - N/A Snow Light Snow
9:30 PM 5.0 °F -10.0 °F 1.4 °F 85% 30.15 in 4.0 mi NNW 10.4 mph - N/A Snow Light Snow
9:50 PM 5.0 °F -9.1 °F 1.4 °F 85% 30.15 in 2.5 mi NNW 9.2 mph - N/A Snow Light Snow
10:10 PM 5.0 °F -10.0 °F 1.4 °F 85% 30.15 in 5.0 mi NNW 10.4 mph - N/A Snow Light Snow
10:30 PM 5.0 °F -10.0 °F -0.4 °F 78% 30.15 in 7.0 mi NNW 10.4 mph - N/A Snow Light Snow
10:50 PM 5.0 °F -9.1 °F 1.4 °F 85% 30.15 in 7.0 mi NNW 9.2 mph - N/A Snow Light Snow
11:10 PM 5.0 °F -9.1 °F 1.4 °F 85% 30.14 in 7.0 mi NNW 9.2 mph - N/A Snow Light Snow
11:30 PM 3.2 °F -10.3 °F -0.4 °F 85% 30.14 in 7.0 mi NW 8.1 mph - N/A Snow Light Snow
11:50 PM 3.2 °F -10.3 °F -0.4 °F 85% 30.13 in 10.0 mi NNW 8.1 mph - N/A Snow Light Snow